East Milton, MA

9:48 PM EDT on July 22, 2017 (GMT -0400)
East Milton

Weather History for KMQE - January, 2013

Change the Weather History Date:

Saturday, January 12, 2013

  Actual Average (KOWD) Record (KOWD)
Temperature  
Mean Temperature 40 °F -  
Max Temperature 43 °F 32 °F 62 °F (2017)
Min Temperature 36 °F 16 °F 5 °F (2009)
Degree Days  
Heating Degree Days 26    
Moisture  
Dew Point 39 °F    
Average Humidity 95    
Maximum Humidity 97    
Minimum Humidity 92    
Precipitation  
Precipitation 0.01 in - - ()
Sea Level Pressure  
Sea Level Pressure 30.18 in    
Wind  
Wind Speed 8 mph (South)    
Max Wind Speed 14 mph    
Max Gust Speed -    
Averages and records for this station are not official NWS values.
T = Trace of Precipitation, MM = Missing Value Source: NWS Daily Summary

Daily Weather History Graph

Daily Weather History Graph

Search for Another Location

Airport or City:

Trip Planner

Search our weather history database for the weather conditions in past years. The results will help you decide how hot, cold, wet, or windy it might be!

Date:

Astronomy

Jan. 12, 2013 Rise Set
Actual Time 7:11 AM EST 4:34 PM EST
Civil Twilight 6:40 AM EST 5:05 PM EST
Nautical Twilight 6:05 AM EST 5:40 PM EST
Astronomical Twilight 5:32 AM EST 6:13 PM EST
Moon 7:26 AM EST (1/12) 6:01 PM EST (1/12)
Length of Visible Light 10h 24m
Length of Day
9h 22m
New Moon, 1% of the Moon is Illuminated
Jan 12
New Moon
Jan 18
First Quarter
Jan 26
Full
Feb 3
Last Quarter
Feb 10
New

Hourly Weather History & Observations

Time (EST) Temp. Windchill Dew Point Humidity Pressure Visibility Wind Dir Wind Speed Gust Speed Precip Events Conditions
12:54 AM 36.0 °F 28.0 °F 35.1 °F 97% 30.22 in - SE 11.5 mph - 0.01 in   Unknown
1:54 AM 37.0 °F 28.5 °F 35.1 °F 93% 30.20 in - SE 13.8 mph - N/A   Unknown
2:54 AM 37.0 °F 29.3 °F 36.0 °F 96% 30.20 in - SE 11.5 mph - N/A   Unknown
3:54 AM 37.9 °F 30.5 °F 36.0 °F 93% 30.17 in - SE 11.5 mph - N/A   Unknown
4:54 AM 37.9 °F 31.5 °F 37.0 °F 97% 30.17 in - SE 9.2 mph - N/A   Unknown
5:54 AM 37.9 °F 33.5 °F 36.0 °F 93% 30.18 in - SE 5.8 mph - N/A   Unknown
6:54 AM 37.9 °F 31.5 °F 37.0 °F 97% 30.17 in - SE 9.2 mph - N/A   Unknown
7:54 AM 37.9 °F - 37.0 °F 97% 30.21 in - Calm Calm - N/A   Unknown
8:54 AM 39.0 °F 35.7 °F 37.9 °F 96% 30.21 in - SSE 4.6 mph - N/A   Unknown
9:54 AM 39.9 °F - 39.0 °F 97% 30.21 in - Calm Calm - N/A   Unknown
10:54 AM 39.9 °F 37.8 °F 39.0 °F 97% 30.20 in - NW 3.5 mph - N/A   Unknown
11:54 AM 41.0 °F 39.0 °F 39.9 °F 96% 30.17 in - ESE 3.5 mph - N/A   Unknown
12:54 PM 42.1 °F 39.2 °F 41.0 °F 96% 30.14 in - SE 4.6 mph - N/A   Unknown
1:54 PM 43.0 °F 41.3 °F 41.0 °F 93% 30.18 in - NW 3.5 mph - N/A   Unknown
2:54 PM 43.0 °F - 42.1 °F 97% 30.18 in - Calm Calm - N/A   Unknown
3:54 PM 43.0 °F - 42.1 °F 97% 30.18 in - Calm Calm - N/A   Unknown
4:54 PM 43.0 °F 40.3 °F 41.0 °F 93% 30.17 in - South 4.6 mph - N/A   Unknown
5:54 PM 42.1 °F 38.4 °F 41.0 °F 96% 30.18 in - West 5.8 mph - N/A   Unknown
6:54 PM 42.1 °F 37.7 °F 39.9 °F 92% 30.16 in - SSW 6.9 mph - N/A   Unknown
7:54 PM 42.1 °F 37.7 °F 41.0 °F 96% 30.16 in - South 6.9 mph - N/A   Unknown
8:54 PM 42.1 °F 38.4 °F 41.0 °F 96% 30.17 in - SW 5.8 mph - N/A   Unknown
9:54 PM 42.1 °F 37.7 °F 41.0 °F 96% 30.16 in - SW 6.9 mph - N/A   Unknown
10:54 PM 42.1 °F 37.1 °F 41.0 °F 96% 30.15 in - SW 8.1 mph - N/A   Unknown
11:54 PM 42.1 °F 37.7 °F 39.9 °F 92% 30.16 in - WSW 6.9 mph - N/A   Unknown